DELTA 1 DEB, 40758

Orbit data source: Space-Track

DELTA 1 DEB, 40758 is space debris in SSO originally from a launch on Thu, 29 Jul 1976 UTC launched from the Air Force Western Test Range (AFWTR). Debris objects in space refer to the collection of defunct objects orbiting the Earth. Examples of debris include non-operational satellites, rocket bodies, and fragments generated from explosions, collisions, or faulty payload assembly.

Loading next visibility...
Identifier
40758, 1976-077GB
Orbit
SSO
Country
Flag of USUS
Related business
Manufacturer
Unknown
Mission
Spacecraft
Bus & Motor
Unknown
Mass
Unknown
Launch date (UTC)
1976-07-29 (50 years ago)
Launch vehicle
Unknown
Launch site
Air Force Western Test Range (AFWTR)
Object type
Payload
Rocket body
Debris
Shape & HBR
Unknown shape, 0.1 m
Radar Cross Section
Medium (>0.1 m² and <1 m²)

Expand to show TLE details & history
Last TLE update: 2 weeks ago

TLE from 2 weeks ago
0 DELTA 1 DEB
1 40758U 76077GB  26160.16100792  .00000008  00000-0  47024-3 0  9990
2 40758 102.5232 131.1720 0089315 118.6244 310.8342 12.25497117561123
Epoch: 2026-06-09T03:51Z
TLE epoch observation values (Epoch: 2026-06-09T03:51:51.084Z)
Latitude
65.50561°
Longitude
146.64971°
Altitude
1,533.745 km
Speed
7.126 km/s
True Right ascension
06h 48m 36s
True Declination
65° 23' 18"
Sunlit
Object was in daylight at epoch
Visualization orbit readout
Latitude
Unknown
Longitude
Unknown
Altitude
Unknown
Speed
Unknown
Apparent Right ascension
Unknown
Apparent Declination
Unknown
Sunlit
N/A
Visualization observer readout
Local Sidereal Time
21:37:40
Azimuth
Unknown
Elevation
Unknown
Doppler factor
Unknown
Orbital elements
Apogee altitude
1,637.269 km
Perigee altitude
1,495.357 km
Semi-major axis
7,944.45 km
Eccentricity
0.00893
Inclination
102.5232°
RAAN
131.172°
Arg. of periapsis
118.6244°
True anomaly
310.05417°
Mean anomaly
310.8342°
Eccentric anomaly
310.44475°
Mean motion
3.06512 °/min
Orbital period
117.45 mins
BSTAR
0.00047024
Loading maneuver chart data...
Computing Atmospheric mass density...
Loading historical data...
Loading historical data...
Loading historical data...
Loading historical data...
Loading historical data...
Loading historical data...
Loading historical data...

Documentation

Showing up to 5 results
|